Location: Trout Lake
(45.9980°N, 121.5270°W)
Time: 19:51:27
(UTC-08:00)

CZ-2C R/B - Pass Details

Date: 06 December 2023
Orbit: 471 x 524 km, 97.8° (Epoch: 22 February)

Event Time Altitude Azimuth Distance (km) Brightness Sun altitude
Rises 17:19:22 0° 171° (S) 2,507 6.4 -9.8°
Reaches altitude 10° 17:21:24 10° 173° (S) 1,639 5.4 -10.1°
Maximum altitude 17:24:54 70° 258° (WSW) 514 2.9 -10.7°
Drops below altitude 10° 17:28:30 10° 343° (NNW) 1,680 5.3 -11.3°
Sets 17:30:36 0° 345° (NNW) 2,576 6.2 -11.6°
